Regional Weather Roundup
Issued by NWS

Home | Current Version | Previous Version | Graphics & Text | Print | Product List | Glossary On
Versions: 1 2 3 4 5 6 7 8 9 10 11 12 13 14 15 16 17 18 19 20 21 22 23 24 25 26 27 28 29 30 31 32 33 34 35 36 37 38 39 40 41 42 43 44 45 46 47 48 49 50
506
ASUS43 KMPX 270010
RWRMN
WEATHER ROUNDUP FOR MINNESOTA
NATIONAL WEATHER SERVICE TWIN CITIES/CHANHASSEN MN
700 PM CDT THU APR 26 2018


NOTE: "FAIR" INDICATES FEW OR NO CLOUDS BELOW 12,000 FEET WITH NO
SIGNIFICANT WEATHER AND/OR OBSTRUCTIONS TO VISIBILITY. N/A MEANS
CURRENT SKY AND/OR WEATHER CONDITIONS ARE NOT AVAILABLE.

MNZ060>063-068>070-270100-
   Twin Cities Metro

CITY           SKY/WX    TMP DP  RH WIND       PRES   REMARKS
TWIN CITIES    FAIR      61  29  29 N21       29.88S
6HR MIN TEMP:  61; 6HR MAX TEMP:  66;

ST PAUL        FAIR      60  28  29 N17G26    29.89R
CRYSTAL        FAIR      60  27  28 N15G23    29.89R
BLAINE         MOSUNNY   61  25  25 NW18      29.90R
LAKEVILLE      FAIR      57  30  35 NW12G18   29.88S
EDEN PRAIRIE   FAIR      62  29  28 NW15G23   29.88R
6HR MIN TEMP:  60; 6HR MAX TEMP:  64;

SOUTH ST PAUL  FAIR      61  27  27 N14       29.88R
LAKE ELMO      FAIR      59  30  33 NW15G25   29.89S
$$
MNZ001>005-007-008-013>017-022>024-027-028-270100-
   Northwest Minnesota

CITY           SKY/WX    TMP DP  RH WIND       PRES   REMARKS
BEMIDJI        FAIR      53  18  24 NW16G22   29.94S
HALLOCK        FAIR      61  21  21 S9        29.86F
ROSEAU         FAIR      55  30  38 W5        29.89F
WARROAD        FAIR      55  25  30 W6        29.89F
THIEF RVR FALL FAIR      56  27  32 NW8       29.93F
CROOKSTON      FAIR      59  30  33 SW3       29.93F
FOSSTON        FAIR      55  25  30 NW9       29.95F
DETROIT LAKES  FAIR      54  30  40 NW15      29.99F
MOORHEAD       FAIR      59  28  31 N14       29.98F
PARK RAPIDS    FAIR      55  20  25 NW16      29.95S
MAHNOMEN       FAIR      55  29  36 NW8       29.96F
$$
MNZ006-009>011-018-025>026-270100-
   North Central Minnesota

CITY           SKY/WX    TMP DP  RH WIND       PRES   REMARKS
BAUDETTE       FAIR      53  20  27 NW6       29.90F
FLAG ISLAND    FAIR      36  28  75 S6        29.88F
INTL FALLS     FAIR      52  21  29 NW7       29.90F
6HR MIN TEMP:  49; 6HR MAX TEMP:  54;

WASKISH        FAIR      46  27  46 W10       29.92F
BIG FORK       FAIR      54  19  26 N5        29.90F
LONGVILLE      FAIR      54  18  24 N5        29.93F
GRAND RAPIDS   FAIR      53  22  29 NW16      29.92F
CRANE LAKE     FAIR      48  19  32 NW6       29.92S
ORR            FAIR      52  18  25 CALM      29.88S
COOK           FAIR      52  23  32 N7        29.90S
WALKER         FAIR      53  21  28 NW14G20   29.93F
$$
MNZ012-019>021-037-270100-
   Northeast Minnesota

CITY           SKY/WX    TMP DP  RH WIND       PRES   REMARKS
DULUTH         FAIR      54  24  31 N12G21    29.88S
6HR MIN TEMP:  53; 6HR MAX TEMP:  57;

ELY            FAIR      50  21  32 NW6       29.89S
HIBBING        FAIR      51  22  31 NW18      29.89S
EVELETH        FAIR      53  20  28 NW8       29.90S
DULUTH HARBOR  PTSUNNY   48  34  57 E8        29.89F
TWO HARBORS    FAIR      57  30  35 N5        29.87S
SILVER BAY     FAIR      54  23  30 N5        29.87S
GRAND MARAIS     N/A     49  28  44 E9        29.88S
G MARAIS ARPRT PTSUNNY   43  23  45 NW3       29.88S
$$
MNZ029>031-032-039>041-046>048-054>057-064-270100-
   West Central Minnesota

CITY           SKY/WX    TMP DP  RH WIND       PRES   REMARKS
FERGUS FALLS   FAIR      55  30  38 N12G18    29.97S
WHEATON        SUNNY     57  28  33 NW13G20   30.02S
MORRIS         SUNNY     55  34  44 N15       30.00S
ALEXANDRIA     FAIR      56  25  30 N13G28    29.99S
ELBOW LAKE     FAIR      55  31  41 NW16      30.00S
WADENA         FAIR      54  28  37 NW15G22   29.97R
GLENWOOD       FAIR      54  25  32 NW15G21   29.99S
APPLETON       SUNNY     57  34  41 N14       30.00F
BENSON         SUNNY     55  27  33 N17G23    30.01F
ORTONVILLE     SUNNY     57  34  41 N15       30.01S
MADISON        SUNNY     59  34  38 N16       30.01S
WILLMAR        FAIR      54  28  37 N16       30.00S
$$
MNZ033>034-036-042>043-049>051-058-059-270100-
   Central Minnesota

CITY           SKY/WX    TMP DP  RH WIND       PRES   REMARKS
ST CLOUD       FAIR      59  26  28 NW10G20   29.92R
6HR MIN TEMP:  59; 6HR MAX TEMP:  63;

SAUK CENTRE    FAIR      55  26  33 NW15      29.97S
PAYNESVILLE    FAIR      55  31  40 NW14G21   29.97R
AITKIN         FAIR      54  21  28 NW13G20   29.91S
PINE RIVER     FAIR      54  25  32 N10G17    29.96F
BRAINERD       FAIR      57  24  28 N10       29.93S
STAPLES        FAIR      54  19  26 NW12G21   29.95S
LONG PRAIRIE   FAIR      54  27  35 W13G18    29.97R
LITTLE FALLS   FAIR      55   9  15 NW12G17   29.94S
LITCHFIELD     FAIR      57  30  35 NW12G20   29.96S
BUFFALO        FAIR      59  26  28 NW9G16    29.93R
MAPLE LAKE     FAIR      59  32  35 NW10      29.93S
HUTCHINSON     FAIR      56  34  43 NW16G28   29.96S
$$
MNZ037-044-045-052-053-270100-
   East Central Minnesota

CITY           SKY/WX    TMP DP  RH WIND       PRES   REMARKS
PRINCETON      FAIR      59  27  29 NW8       29.92S
MORA           FAIR      54  27  35 NW12      29.93R
CAMBRIDGE      FAIR      59  36  41 NW13G22   29.92R
RUSH CITY      FAIR      56  29  35 NW10G22   29.91R
MOOSE LAKE     FAIR      55  28  35 NW8       29.88S
HINCKLEY       FAIR      57  30  35 NW14      29.90R
CLOQUET        FAIR      55  18  22 NW9G21    29.89R
MCGREGOR       FAIR      55  23  28 NW12G17   29.91S
$$
MNZ071>073-080-081-089-090-097-098-270100-
   Southwest Minnesota

CITY           SKY/WX    TMP DP  RH WIND       PRES   REMARKS
MONTEVIDEO     SUNNY     55  34  44 N16G23    30.01S
GRANITE FALLS  SUNNY     56  34  43 NW17      30.02S
CANBY          SUNNY     58  32  37 N15G22    30.02F
MARSHALL       SUNNY     55  36  48 N18       30.01S
REDWOOD FALLS  SUNNY     55  27  34 NW17G31   29.98R
OLIVIA         SUNNY     54  34  47 NW17G28   29.97S
PIPESTONE      SUNNY    N/A N/A N/A N14G21    30.03R
WINDOM         SUNNY     54  28  37 NW24      29.99S
WORTHINGTON    SUNNY     54  36  50 NW17      30.02R
JACKSON        SUNNY     52  32  46 NW24G39   29.99S
TRACY          SUNNY     55  38  52 N18G24    30.01R
SLAYTON        SUNNY     54  36  50 NW16G23   30.02S
$$
MNZ065>067-074>077-082>085-091>093-270100-
   South Central Minnesota

CITY           SKY/WX    TMP DP  RH WIND       PRES   REMARKS
MANKATO        FAIR      57  29  34 NW22G29   29.93R
NEW ULM        SUNNY     55  28  35 NW20G25   29.96R
ST JAMES       SUNNY     54  36  50 NW20G25   29.98R
FAIRMONT       SUNNY     54  33  45 NW26G33   29.96R
GLENCOE        FAIR      57  35  42 NW20G26   29.92S
OWATONNA       FAIR      61  34  36 NW23      29.89S
WASECA         FAIR      55  32  41 NW21G29   29.92R
ALBERT LEA     FAIR      57  27  30 NW14G20   29.90R
$$
MNZ078>079-086>088-094>096-270100-
   Southeast Minnesota

CITY           SKY/WX    TMP DP  RH WIND       PRES   REMARKS
ROCHESTER      FAIR      58  35  42 NW23      29.86R
6HR MIN TEMP:  58; 6HR MAX TEMP:  64;

RED WING       FAIR      63  21  20 SW9G16    29.85R
STANTON        FAIR      61  28  28 NW16      29.86S
DODGE CENTER   FAIR      57  28  33 NW16      29.87S
WINONA         FAIR      61  34  36 NW14      29.80R
AUSTIN         FAIR      59  34  38 NW14G25   29.87S
PRESTON        FAIR      60  34  38 NW14      29.85R
$$
ABBREVIATIONS USED IN REMARKS
   TC - TEMPERATURES IN CELSIUS
  WCI - WIND CHILL INDEX
   HX - HEAT INDEX
  VSB - VISIBILITY
$$




USA.gov is the U.S. government's official web portal to all federal, state and local government web resources and services.